Regional Weather Roundup
Issued by NWS

Home | Current Version | Previous Version | Graphics & Text | Print | Product List | Glossary On
Versions: 1 2 3 4 5 6 7 8 9 10 11 12 13 14 15 16 17 18 19 20 21 22 23 24 25 26 27 28 29 30 31 32 33 34 35 36 37 38 39 40 41 42 43 44 45 46 47 48 49 50
583
ASUS45 KPSR 271910
RWRAZ

ARIZONA REGIONAL HOURLY WEATHER ROUNDUP
NATIONAL WEATHER SERVICE TUCSON AZ
1200 PM MST SAT MAY 27 2017

NOTE: FAIR INDICATES FEW OR NO CLOUDS BELOW 12,000 FEET WITH NO
SIGNIFICANT WEATHER AND/OR OBSTRUCTIONS TO VISIBILITY.

AZZ001>003-036-272000-
NORTHWEST ARIZONA

CITY           SKY/WX    TMP DP  RH WIND       PRES   REMARKS
BULLHEAD CITY  SUNNY     90  37  15 VRB3      29.91F
KINGMAN        SUNNY     81  32  17 CALM      30.05S
$$

AZZ004>008-015-016-018-272000-
NORTH CENTRAL ARIZONA

CITY           SKY/WX    TMP DP  RH WIND       PRES   REMARKS
GRAND CANYON   SUNNY     68  20  16 SW5       30.21S
WILLIAMS       CLEAR     68  23  18 VRB7G14   30.22R
PRESCOTT       SUNNY     76  25  15 SW9       30.13S
FLAGSTAFF      SUNNY     67  24  19 SW10G17   30.20S
PAYSON         CLEAR     75  25  15 W10G17    30.17S
PAGE           SUNNY     76  29  17 CALM      30.08S
$$

AZZ009>014-017-272000-
NORTHEAST ARIZONA

CITY           SKY/WX    TMP DP  RH WIND       PRES   REMARKS
WINSLOW        SUNNY     79  21  11 VRB7      30.10F
SAINT JOHNS    SUNNY     74  17  11 NW8       30.13F
WINDOW ROCK    SUNNY     71  21  15 W8G21     30.18S
SHOW LOW       SUNNY     68  16  13 S7G21     30.20F
$$

AZZ023-272000-
GREATER PHOENIX AREA

CITY           SKY/WX    TMP DP  RH WIND       PRES   REMARKS
PHOENIX        MOSUNNY   90  23   9 VRB6      29.93F
BUCKEYE        CLEAR     86  32  14 SE5       29.95F
GLENDALE       SUNNY     90  28  11 CALM      29.96
LUKE AFB       SUNNY     88  29  11 S5        29.93F
DEER VALLEY    SUNNY     87  22   9 VRB5      29.95F
SCOTTSDALE     SUNNY     89  20   8 VRB6      29.97F
MESA-FALCON    SUNNY     90  23   9 S7        29.96F
MESA-GATEWAY   SUNNY     88  21   8 CALM      29.96F
CHANDLER       SUNNY     88  18   7 VRB5      29.95F
$$

AZZ027-028-272000-
SOUTHWEST MARICOPA COUNTY AND PINAL COUNTY

CITY           SKY/WX    TMP DP  RH WIND       PRES   REMARKS
CASA GRANDE    SUNNY     87  28  12 VRB6      29.96F
$$

AZZ503-504-507>509-272000-
SOUTHEAST ARIZONA

CITY           SKY/WX    TMP DP  RH WIND       PRES   REMARKS
TUCSON         SUNNY     88  13   6 CALM      30.02F
DAVIS-MONTHAN  MOSUNNY   86  15   7 NW3       30.01F
RYAN FIELD     CLEAR     88  19   8 W6        30.01F
NOGALES        SUNNY     85  20   9 VRB7G17   30.07F
SIERRA VISTA   SUNNY     83  15   8 SW7       30.12S
DOUGLAS        SUNNY     88  17   7 W21G29    30.07F
SAFFORD        SUNNY     85  16   7 VRB5      30.01F
$$

AZZ020-021-025-026-031-272000-
SOUTHWEST ARIZONA

CITY           SKY/WX    TMP DP  RH WIND       PRES   REMARKS
YUMA           SUNNY     86  44  23 CALM      29.92S
$$

CAZ031-033-041-043-047-048-061-272000-
SOUTHERN CALIFORNIA

CITY           SKY/WX    TMP DP  RH WIND       PRES   REMARKS
DOWNTOWN L.A.  CLOUDY    69  51  52 W6        30.06R
L.A. AIRPORT   MOSUNNY   67  52  58 SW10      30.07S
SAN DIEGO      PTSUNNY   66  54  65 NW13      30.08S
BURBANK        SUNNY     68  49  50 E6        30.05F
ONTARIO        MOSUNNY   70  48  45 SW9       30.05F
RIVERSIDE      SUNNY     71  50  47 VRB3      30.05F
PALM SPRINGS   SUNNY     87  39  18 CALM      29.94S
EL CENTRO NAS  SUNNY     85  45  24 VRB5      29.93S
IMPERIAL       SUNNY     85  48  27 VRB6      29.91S
BLYTHE         SUNNY     87  37  17 CALM      29.92F
NEEDLES        SUNNY     93  35  13 N6        29.92F
$$

NVZ020-UTZ003-272000-
SOUTHERN NEVADA-UTAH

CITY           SKY/WX    TMP DP  RH WIND       PRES   REMARKS
LAS VEGAS      MOSUNNY   85  26  11 CALM      29.99S
SALT LAKE CITY MOSUNNY   65  37  35 NW12      30.22S
$$

NMZ009-TXZ055-272000-
NEW MEXICO-WEST TEXAS

CITY           SKY/WX    TMP DP  RH WIND       PRES   REMARKS
ALBUQUERQUE    SUNNY     77  17  10 W13G23    30.07F
EL PASO        MOSUNNY   88  28  11 W21G32    30.03F
$$


........................KEY........................
SKY/WX - SKY CONDITION/WEATHER
TMP    - TEMPERATURE IN FAHRENHEIT
DP     - DEWPOINT IN FAHRENHEIT
RH     - RELATIVE HUMIDITY IN PERCENT
WIND   - DIRECTION AND SPEED IN MILES PER HOUR (MPH)
VRB    - VARIABLE WIND DIRECTION
PRES   - MEAN SEA LEVEL PRESSURE IN INCHES OF MERCURY
         F - FALLING PRESSURE   R - RISING PRESSURE
         S - STEADY PRESSURE
VSB    - VISIBILITY IN MILES
HX     - HEAT INDEX IN FAHRENHEIT
WCI    - WIND CHILL INDEX IN FAHRENHEIT
TC     - TEMPERATURE IN CELSIUS WHICH IS ALSO KNOWN AS
         TEMPERATURE IN CENTIGRADE
AFB    - AIR FORCE BASE
         LUKE AFB IS LUKE AIR FORCE BASE
         DAVIS-MONTHAN IS DAVIS-MONTHAN AIR FORCE BASE
NAS    - NAVAL AIR STATION
         EL CENTRO NAS IS EL CENTRO NAVAL AIR STATION
N/A    - NOT AVAILABLE





USA.gov is the U.S. government's official web portal to all federal, state and local government web resources and services.